Regional Weather Roundup
Issued by NWS

Home | Current Version | Previous Version | Graphics & Text | Print | Product List | Glossary On
Versions: 1 2 3 4 5 6 7 8 9 10 11 12 13 14 15 16 17 18 19 20 21 22 23 24 25 26 27 28 29 30 31 32 33 34 35 36 37 38 39 40 41 42 43 44 45 46 47 48 49 50
000
ASUS43 KOAX 290310
RWRNE

WEATHER ROUNDUP FOR NEBRASKA
NATIONAL WEATHER SERVICE OMAHA NE
1000 PM CDT SUN AUG 28 2016

NOTES: SATELLITE DATA IS BEING USED TO AUGMENT CLOUD COVER ABOVE
       12000 FEET.
       "FAIR" INDICATES FEW OR NO CLOUDS BELOW 12,000 FEET WITH NO
       SIGNIFICANT WEATHER AND/OR OBSTRUCTIONS TO VISIBILITY.

  * THESE STATIONS DO NOT REPORT WEATHER SUCH AS RAIN...SNOW OR FOG.

NEZ001>004-019>022-054>056-290400-
NEBRASKA PANHANDLE

CITY           SKY/WX    TMP DP  RH WIND       PRES   REMARKS
SCOTTSBLUFF    MOCLDY    71  56  58 CALM      30.11R
ALLIANCE       CLEAR     65  55  70 S9        30.11R
CHADRON        CLOUDY    76  46  34 SW3       30.05R
KIMBALL        CLOUDY    70  46  43 SW12G20   30.19R
SIDNEY         PTCLDY    66  49  54 S8        30.16R
$$

NEZ057>060-069>072-079>082-290400-
SOUTHWEST NEBRASKA

CITY           SKY/WX    TMP DP  RH WIND       PRES   REMARKS
NORTH PLATTE   CLEAR     70  58  65 SE5       30.12R
IMPERIAL       CLEAR     67  60  78 SE9       30.13R
LEXINGTON      CLEAR     69  64  83 E3        30.12R
MCCOOK         PTCLDY    72  62  71 E7        30.11R
OGALLALA       CLOUDY    72  58  62 SE3       30.13R
$$

NEZ005>010-023>029-035>040-094-290400-
NORTH CENTRAL NEBRASKA

CITY           SKY/WX    TMP DP  RH WIND       PRES   REMARKS
VALENTINE      PTCLDY    79  55  43 S14       30.06R
AINSWORTH      CLEAR     74  63  67 S12       30.10R
BROKEN BOW     CLOUDY    68  62  81 CALM      30.12R
O`NEILL        PTCLDY    77  66  69 SE8       30.10R
ORD            CLOUDY    72  65  78 S5        30.10R
THEDFORD       CLEAR     73  58  59 S8        30.13R
$$

NEZ041-046>049-061>064-073>077-083>087-290400-
SOUTH CENTRAL NEBRASKA

CITY           SKY/WX    TMP DP  RH WIND       PRES   REMARKS
GRAND ISLAND   CLOUDY    76  68  76 SE12      30.12R
AURORA         CLOUDY    73  69  89 SE7       30.13R
HASTINGS       CLOUDY    77  68  73 SE15G26   30.13R
HEBRON         CLOUDY    71  65  82 SE17      30.13R
HOLDREGE       PTCLDY    69  63  82 SE3       30.12R
KEARNEY *      CLOUDY    72  66  83 SE7       30.11R
YORK           CLOUDY    73  66  78 SE7       30.13R
$$

NEZ011>018-030>034-042>045-290400-
NORTHEAST NEBRASKA

CITY           SKY/WX    TMP DP  RH WIND       PRES   REMARKS
NORFOLK        CLEAR     73  65  75 S10       30.11R
ALBION         PTCLDY    75  67  77 SE9       30.12R
BLAIR          MOCLDY    69  66  88 SW5       30.10S
FREMONT        MOCLDY    72  66  79 S5        30.11S
TEKAMAH        PTCLDY    69  66  90 SW3       30.08S
WAYNE          PTCLDY    71  69  93 S7        30.11S
$$

NEZ050>053-065>068-078-088>093-290400-
SOUTHEAST NEBRASKA

CITY           SKY/WX    TMP DP  RH WIND       PRES   REMARKS
LINCOLN        CLOUDY    72  66  81 S6        30.12R
OMAHA EPPLEY   MOCLDY    74  66  76 S7        30.09F
BEATRICE       CLOUDY    71  67  86 SE6       30.12R
FALLS CITY     PTCLDY    70  68  93 CALM      30.12R
NEBRASKA CITY  CLOUDY    69  69  99 S6        30.12R
PLATTSMOUTH    CLOUDY    70  67  93 S5        30.12R
$$

NEZ044-045-051>053-067-290400-
OMAHA AREA

CITY           SKY/WX    TMP DP  RH WIND       PRES   REMARKS
OMAHA EPPLEY   MOCLDY    74  66  76 S7        30.09F
BLAIR          MOCLDY    69  66  88 SW5       30.10S
FREMONT        MOCLDY    72  66  79 S5        30.11S
MILLARD        PTCLDY    72  66  82 SE3       30.10S
OFFUTT AFB     MOCLDY    71  68  92 SE5       30.10S
PLATTSMOUTH    CLOUDY    70  67  93 S5        30.12R
WAHOO          FAIR      69  67  92 CALM      30.11S
$$




USA.gov is the U.S. government's official web portal to all federal, state and local government web resources and services.